カタログに戻る

STARLINK-5084

運用中通信VLEO
NORAD 54851·PAYLOAD·🇺🇸 United States

打ち上げ Dec 28, 2022 から Cape Canaveral Space Force Station

Loading…

次のパス (今後24時間)

TLE

最新Source: CelesTrak SupGP

元期: Sep 14, 2026, 20:46 UTC

1 54851C 22177AH  26257.86576389 -.00025104  00000+0 -90946-3 0  2577
2 54851  43.0021 132.9423 0001498 270.9893 170.6523 15.27583694    14

AllMySatでSTARLINK-5084をリアルタイム追跡

Download on the App Store